Location: Newark
(52.5694°N, 1.3190°W)
Time: 01:09:30
(UTC+00:00)

N. Korean satellite - Pass Details

Date: 24 January 2020
Orbit: 456 x 505 km, 97.2° (Epoch: 25 February)

Event Time Altitude Azimuth Distance (km) Brightness Sun altitude
Rises 06:06:29 0° 13° (NNE) 2,529 10.2 -16.8°
Reaches altitude 10° 06:08:31 10° 14° (NNE) 1,654 9.3 -16.5°
Maximum altitude 06:12:05 89° 106° (ESE) 488 6.5 -16.0°
Drops below altitude 10° 06:15:41 10° 194° (SSW) 1,668 9.3 -15.5°
Sets 06:17:45 0° 195° (SSW) 2,552 10.2 -15.2°
